| time (UTC) | temp F | wind direction | speed MPH | gust MPH | rain 1hr in | rain 24hr in | rain mn in | humidity % | barometer mb |
| 20260505214612 | 89 | 337 | 13.0 | 16.0 | 0.00 | 0.00 | 0.00 | 51 | 1004.6 |
| 20260505214111 | 89 | 312 | 5.0 | 15.0 | 0.00 | 0.00 | 0.00 | 50 | 1004.6 |
| 20260505213613 | 90 | 328 | 12.0 | 15.0 | 0.00 | 0.00 | 0.00 | 49 | 1004.5 |
| 20260505213111 | 91 | 281 | 6.0 | 14.0 | 0.00 | 0.00 | 0.00 | 49 | 1004.6 |
| 20260505212614 | 91 | 254 | 2.0 | 14.0 | 0.00 | 0.00 | 0.00 | 50 | 1004.5 |
| 20260505212110 | 91 | 245 | 4.0 | 14.0 | 0.00 | 0.00 | 0.00 | 49 | 1004.5 |
| 20260505211613 | 91 | 294 | 8.0 | 13.0 | 0.00 | 0.00 | 0.00 | 48 | 1004.6 |
| 20260505211112 | 92 | 236 | 3.0 | 13.0 | 0.00 | 0.00 | 0.00 | 49 | 1004.7 |
| 20260505210614 | 92 | 285 | 6.0 | 10.0 | 0.00 | 0.00 | 0.00 | 50 | 1004.8 |
| 20260505210113 | 92 | 234 | 9.0 | 10.0 | 0.00 | 0.00 | 0.00 | 50 | 1004.8 |
| 20260505205613 | 92 | 278 | 3.0 | 11.0 | 0.00 | 0.00 | 0.00 | 50 | 1004.8 |
| 20260505205114 | 91 | 219 | 3.0 | 11.0 | 0.00 | 0.00 | 0.00 | 50 | 1004.9 |
| 20260505204612 | 92 | 275 | 11.0 | 11.0 | 0.00 | 0.00 | 0.00 | 51 | 1005.0 |
| 20260505204111 | 91 | 208 | 5.0 | 12.0 | 0.00 | 0.00 | 0.00 | 52 | 1005.0 |
| 20260505203612 | 90 | 286 | 4.0 | 12.0 | 0.00 | 0.00 | 0.00 | 54 | 1005.2 |
| 20260505203112 | 90 | 236 | 10.0 | 14.0 | 0.00 | 0.00 | 0.00 | 53 | 1005.2 |
| 20260505202611 | 89 | 266 | 7.0 | 14.0 | 0.00 | 0.00 | 0.00 | 54 | 1005.1 |
| 20260505202113 | 89 | 212 | 9.0 | 14.0 | 0.00 | 0.00 | 0.00 | 55 | 1005.4 |
| 20260505201611 | 89 | 203 | 8.0 | 11.0 | 0.00 | 0.00 | 0.00 | 57 | 1005.5 |
| 20260505201113 | 88 | 209 | 8.0 | 12.0 | 0.00 | 0.00 | 0.00 | 59 | 1005.5 |
| 20260505200610 | 88 | 211 | 9.0 | 14.0 | 0.00 | 0.00 | 0.00 | 58 | 1005.4 |
| 20260505200112 | 88 | 234 | 6.0 | 17.0 | 0.00 | 0.00 | 0.00 | 58 | 1005.5 |
| 20260505195612 | 88 | 223 | 5.0 | 17.0 | 0.00 | 0.00 | 0.00 | 57 | 1005.5 |
| 20260505195114 | 89 | 217 | 6.0 | 17.0 | 0.00 | 0.00 | 0.00 | 57 | 1005.6 |
| 20260505194612 | 89 | 169 | 4.0 | 16.0 | 0.00 | 0.00 | 0.00 | 57 | 1005.5 |
| 20260505194113 | 89 | 229 | 7.0 | 15.0 | 0.00 | 0.00 | 0.00 | 58 | 1005.5 |
| 20260505193611 | 88 | 248 | 3.0 | 16.0 | 0.00 | 0.00 | 0.00 | 57 | 1005.5 |
| 20260505193111 | 88 | 247 | 8.0 | 16.0 | 0.00 | 0.00 | 0.00 | 58 | 1005.5 |
| 20260505192544 | 88 | 246 | 11.0 | 14.0 | 0.00 | 0.00 | 0.00 | 60 | 1005.8 |
| 20260505192114 | 87 | 235 | 5.0 | 14.0 | 0.00 | 0.00 | 0.00 | 61 | 1005.6 |
| 20260505191614 | 87 | 236 | 6.0 | 14.0 | 0.00 | 0.00 | 0.00 | 61 | 1005.5 |
| 20260505191114 | 87 | 215 | 13.0 | 12.0 | 0.00 | 0.00 | 0.00 | 64 | 1005.6 |
| 20260505190612 | 86 | 236 | 5.0 | 15.0 | 0.00 | 0.00 | 0.00 | 64 | 1005.5 |
| 20260505190113 | 85 | 177 | 5.0 | 15.0 | 0.00 | 0.00 | 0.00 | 65 | 1005.6 |
| 20260505185613 | 85 | 203 | 6.0 | 15.0 | 0.00 | 0.00 | 0.00 | 67 | 1005.5 |
| 20260505185114 | 84 | 179 | 6.0 | 15.0 | 0.00 | 0.00 | 0.00 | 67 | 1005.6 |
| 20260505184611 | 84 | 190 | 4.0 | 15.0 | 0.00 | 0.00 | 0.00 | 66 | 1005.6 |
| 20260505184112 | 84 | 167 | 12.0 | 15.0 | 0.00 | 0.00 | 0.00 | 68 | 1005.6 |
| 20260505183611 | 84 | 154 | 6.0 | 15.0 | 0.00 | 0.00 | 0.00 | 68 | 1005.8 |
| 20260505183113 | 84 | 225 | 7.0 | 15.0 | 0.00 | 0.00 | 0.00 | 68 | 1005.7 |
| 20260505182615 | 83 | 238 | 13.0 | 15.0 | 0.00 | 0.00 | 0.00 | 68 | 1005.8 |
| 20260505182113 | 83 | 257 | 10.0 | 17.0 | 0.00 | 0.00 | 0.00 | 69 | 1005.8 |
| 20260505181612 | 83 | 225 | 14.0 | 17.0 | 0.00 | 0.00 | 0.00 | 69 | 1005.9 |
| 20260505181115 | 83 | 213 | 5.0 | 16.0 | 0.00 | 0.00 | 0.00 | 69 | 1005.8 |
| 20260505180613 | 82 | 185 | 8.0 | 20.0 | 0.00 | 0.00 | 0.00 | 70 | 1005.9 |
| 20260505180111 | 82 | 209 | 6.0 | 20.0 | 0.00 | 0.00 | 0.00 | 70 | 1005.9 |
| 20260505175613 | 82 | 249 | 4.0 | 19.0 | 0.00 | 0.00 | 0.00 | 70 | 1006.0 |
| 20260505175111 | 82 | 216 | 9.0 | 18.0 | 0.00 | 0.00 | 0.00 | 70 | 1005.9 |
| 20260505174611 | 82 | 202 | 10.0 | 17.0 | 0.00 | 0.00 | 0.00 | 71 | 1005.9 |
| 20260505174111 | 82 | 219 | 9.0 | 17.0 | 0.00 | 0.00 | 0.00 | 71 | 1005.9 |
| 20260505173609 | 82 | 236 | 4.0 | 24.0 | 0.00 | 0.00 | 0.00 | 71 | 1005.9 |
| 20260505173110 | 82 | 214 | 13.0 | 24.0 | 0.00 | 0.00 | 0.00 | 71 | 1005.9 |
| 20260505172636 | 81 | 224 | 7.0 | 24.0 | 0.00 | 0.00 | 0.00 | 71 | 1005.9 |
| 20260505172136 | 82 | 192 | 9.0 | 20.0 | 0.00 | 0.00 | 0.00 | 71 | 1005.9 |
| 20260505171634 | 81 | 219 | 9.0 | 20.0 | 0.00 | 0.00 | 0.00 | 72 | 1006.0 |
| 20260505171135 | 81 | 212 | 6.0 | 19.0 | 0.00 | 0.00 | 0.00 | 72 | 1006.0 |
| 20260505170634 | 81 | 221 | 16.0 | 19.0 | 0.00 | 0.00 | 0.00 | 71 | 1005.9 |
| 20260505170135 | 81 | 242 | 5.0 | 21.0 | 0.00 | 0.00 | 0.00 | 72 | 1005.9 |
| 20260505165633 | 81 | 212 | 6.0 | 23.0 | 0.00 | 0.00 | 0.00 | 72 | 1005.9 |
| 20260505165133 | 81 | 215 | 7.0 | 23.0 | 0.00 | 0.00 | 0.00 | 71 | 1005.9 |
| 20260505164633 | 81 | 209 | 9.0 | 14.0 | 0.00 | 0.00 | 0.00 | 72 | 1005.8 |
| 20260505164134 | 81 | 175 | 7.0 | 13.0 | 0.00 | 0.00 | 0.00 | 73 | 1005.9 |
| 20260505163634 | 80 | 246 | 8.0 | 19.0 | 0.00 | 0.00 | 0.00 | 76 | 1006.0 |
| 20260505163136 | 79 | 259 | 4.0 | 21.0 | 0.00 | 0.00 | 0.00 | 75 | 1005.9 |
| 20260505162644 | 78 | 136 | 9.0 | 21.0 | 0.00 | 0.00 | 0.00 | 75 | 1005.9 |
| 20260505162134 | 79 | 246 | 11.0 | 19.0 | 0.00 | 0.00 | 0.00 | 75 | 1005.9 |
| 20260505161637 | 78 | 220 | 6.0 | 20.0 | 0.00 | 0.00 | 0.00 | 75 | 1005.9 |
| 20260505161134 | 78 | 229 | 7.0 | 22.0 | 0.00 | 0.00 | 0.00 | 75 | 1005.9 |
| 20260505160633 | 78 | 254 | 7.0 | 23.0 | 0.00 | 0.00 | 0.00 | 75 | 1005.9 |
| 20260505160132 | 78 | 227 | 9.0 | 23.0 | 0.00 | 0.00 | 0.00 | 75 | 1005.8 |
| 20260505153133 | 76 | 230 | 8.0 | 23.0 | 0.00 | 0.00 | 0.00 | 78 | 1005.6 |
| 20260505152635 | 76 | 190 | 4.0 | 22.0 | 0.00 | 0.00 | 0.00 | 78 | 1005.6 |
| 20260505152133 | 76 | 195 | 10.0 | 19.0 | 0.00 | 0.00 | 0.00 | 78 | 1005.6 |
| 20260505151632 | 76 | 203 | 9.0 | 19.0 | 0.00 | 0.00 | 0.00 | 79 | 1005.7 |
| 20260505151131 | 76 | 219 | 9.0 | 21.0 | 0.00 | 0.00 | 0.00 | 79 | 1005.6 |
| 20260505150630 | 75 | 211 | 10.0 | 23.0 | 0.00 | 0.00 | 0.00 | 80 | 1005.6 |
| 20260505150133 | 75 | 182 | 5.0 | 23.0 | 0.00 | 0.00 | 0.00 | 80 | 1005.7 |
| 20260505140630 | 74 | 209 | 10.0 | 22.0 | 0.00 | 0.00 | 0.00 | 82 | 1005.5 |
| 20260505140129 | 74 | 40 | 12.0 | 22.0 | 0.00 | 0.00 | 0.00 | 82 | 1005.5 |
| 20260505130129 | 71 | 29 | 18.0 | 21.0 | 0.00 | 0.00 | 0.00 | 86 | 1005.1 |
| 20260505124627 | 71 | 24 | 12.0 | 18.0 | 0.00 | 0.00 | 0.00 | 87 | 1005.0 |
| 20260505124128 | 71 | 23 | 8.0 | 16.0 | 0.00 | 0.00 | 0.00 | 87 | 1005.0 |
| 20260505123628 | 71 | 23 | 8.0 | 16.0 | 0.00 | 0.00 | 0.00 | 87 | 1004.9 |
| 20260505123127 | 70 | 24 | 6.0 | 14.0 | 0.00 | 0.00 | 0.00 | 87 | 1005.0 |
| 20260505122628 | 70 | 22 | 6.0 | 16.0 | 0.00 | 0.00 | 0.00 | 87 | 1004.9 |
| 20260505122128 | 70 | 24 | 4.0 | 19.0 | 0.00 | 0.00 | 0.00 | 87 | 1004.8 |
| 20260505121628 | 70 | 24 | 8.0 | 21.0 | 0.00 | 0.00 | 0.00 | 87 | 1004.8 |
| 20260505121125 | 70 | 23 | 10.0 | 21.0 | 0.00 | 0.00 | 0.00 | 87 | 1004.6 |
| 20260505120626 | 70 | 22 | 8.0 | 21.0 | 0.00 | 0.00 | 0.00 | 87 | 1004.6 |
| 20260505120127 | 70 | 23 | 14.0 | 22.0 | 0.00 | 0.00 | 0.00 | 87 | 1004.4 |
| 20260505115626 | 70 | 22 | 13.0 | 22.0 | 0.00 | 0.00 | 0.00 | 87 | 1004.4 |
| 20260505115125 | 70 | 21 | 5.0 | 18.0 | 0.00 | 0.00 | 0.00 | 87 | 1004.5 |
| 20260505114625 | 70 | 23 | 15.0 | 20.0 | 0.00 | 0.00 | 0.00 | 87 | 1004.5 |
| 20260505114125 | 70 | 24 | 11.0 | 20.0 | 0.00 | 0.00 | 0.00 | 87 | 1004.3 |
| 20260505113625 | 70 | 22 | 8.0 | 18.0 | 0.00 | 0.00 | 0.00 | 87 | 1004.3 |
| 20260505113126 | 70 | 24 | 3.0 | 16.0 | 0.00 | 0.00 | 0.00 | 87 | 1004.3 |
| 20260505112627 | 70 | 20 | 8.0 | 19.0 | 0.00 | 0.00 | 0.00 | 87 | 1004.3 |
| 20260505112127 | 70 | 24 | 6.0 | 21.0 | 0.00 | 0.00 | 0.00 | 87 | 1004.2 |
| 20260505111624 | 70 | 21 | 5.0 | 21.0 | 0.00 | 0.00 | 0.00 | 87 | 1004.3 |
| 20260505111127 | 70 | 21 | 12.0 | 21.0 | 0.00 | 0.00 | 0.00 | 87 | 1004.2 |
| 20260505110625 | 70 | 21 | 20.0 | 18.0 | 0.00 | 0.00 | 0.00 | 87 | 1004.3 |
| 20260505110126 | 70 | 19 | 12.0 | 22.0 | 0.00 | 0.00 | 0.00 | 87 | 1004.2 |
| 20260505102125 | 70 | 22 | 10.0 | 25.0 | 0.00 | 0.00 | 0.00 | 86 | 1004.2 |
| 20260505101624 | 70 | 19 | 12.0 | 25.0 | 0.00 | 0.00 | 0.00 | 86 | 1004.3 |
| 20260505101124 | 70 | 20 | 11.0 | 25.0 | 0.00 | 0.00 | 0.00 | 86 | 1004.3 |
| 20260505100625 | 71 | 19 | 10.0 | 23.0 | 0.00 | 0.00 | 0.00 | 86 | 1004.4 |
| 20260505100126 | 71 | 360 | 2.0 | 23.0 | 0.00 | 0.00 | 0.00 | 86 | 1004.3 |
| 20260505095625 | 71 | 20 | 7.0 | 22.0 | 0.00 | 0.00 | 0.00 | 86 | 1004.4 |
| 20260505095124 | 71 | 24 | 14.0 | 22.0 | 0.00 | 0.00 | 0.00 | 86 | 1004.5 |
| 20260505094626 | 71 | 19 | 9.0 | 22.0 | 0.00 | 0.00 | 0.00 | 86 | 1004.5 |
| 20260505094124 | 71 | 22 | 6.0 | 24.0 | 0.00 | 0.00 | 0.00 | 86 | 1004.2 |
| 20260505093624 | 71 | 22 | 11.0 | 24.0 | 0.00 | 0.00 | 0.00 | 85 | 1004.3 |
| 20260505093123 | 71 | 19 | 9.0 | 22.0 | 0.00 | 0.00 | 0.00 | 85 | 1004.4 |
| 20260505092623 | 71 | 21 | 13.0 | 22.0 | 0.00 | 0.00 | 0.00 | 85 | 1004.5 |
| 20260505092125 | 71 | 23 | 13.0 | 22.0 | 0.00 | 0.00 | 0.00 | 85 | 1004.6 |
| 20260505091623 | 71 | 19 | 11.0 | 27.0 | 0.00 | 0.00 | 0.00 | 84 | 1004.5 |
| 20260505091123 | 71 | 22 | 8.0 | 27.0 | 0.00 | 0.00 | 0.00 | 84 | 1004.7 |
| 20260505090624 | 71 | 20 | 11.0 | 25.0 | 0.00 | 0.00 | 0.00 | 84 | 1004.7 |
| 20260505090126 | 72 | 24 | 10.0 | 25.0 | 0.00 | 0.00 | 0.00 | 84 | 1004.8 |
| 20260505085623 | 72 | 22 | 9.0 | 25.0 | 0.00 | 0.00 | 0.00 | 84 | 1004.8 |
| 20260505085121 | 72 | 22 | 12.0 | 24.0 | 0.00 | 0.00 | 0.00 | 84 | 1004.7 |
| 20260505084622 | 72 | 26 | 9.0 | 24.0 | 0.00 | 0.00 | 0.00 | 83 | 1004.7 |
| 20260505084122 | 72 | 24 | 10.0 | 23.0 | 0.00 | 0.00 | 0.00 | 83 | 1004.9 |
| 20260505083621 | 72 | 23 | 6.0 | 25.0 | 0.00 | 0.00 | 0.00 | 83 | 1005.0 |
| 20260505083121 | 72 | 22 | 9.0 | 25.0 | 0.00 | 0.00 | 0.00 | 83 | 1004.9 |
| 20260505082621 | 72 | 22 | 19.0 | 25.0 | 0.00 | 0.00 | 0.00 | 83 | 1005.0 |
| 20260505082123 | 72 | 24 | 11.0 | 21.0 | 0.00 | 0.00 | 0.00 | 82 | 1005.0 |
| 20260505081623 | 72 | 22 | 8.0 | 23.0 | 0.00 | 0.00 | 0.00 | 82 | 1004.8 |
| 20260505081124 | 72 | 24 | 11.0 | 25.0 | 0.00 | 0.00 | 0.00 | 82 | 1004.8 |
| 20260505080622 | 72 | 19 | 21.0 | 25.0 | 0.00 | 0.00 | 0.00 | 81 | 1004.9 |
| 20260505080122 | 73 | 27 | 4.0 | 23.0 | 0.00 | 0.00 | 0.00 | 81 | 1004.9 |
| 20260505075621 | 73 | 21 | 12.0 | 23.0 | 0.00 | 0.00 | 0.00 | 81 | 1004.9 |
| 20260505075122 | 73 | 22 | 15.0 | 25.0 | 0.00 | 0.00 | 0.00 | 80 | 1005.0 |
| 20260505074621 | 73 | 21 | 12.0 | 25.0 | 0.00 | 0.00 | 0.00 | 80 | 1005.0 |
| 20260505074121 | 73 | 19 | 9.0 | 22.0 | 0.00 | 0.00 | 0.00 | 80 | 1005.2 |
| 20260505073621 | 73 | 20 | 13.0 | 22.0 | 0.00 | 0.00 | 0.00 | 79 | 1005.2 |
| 20260505073120 | 73 | 17 | 9.0 | 19.0 | 0.00 | 0.00 | 0.00 | 79 | 1005.4 |
| 20260505072621 | 73 | 18 | 10.0 | 20.0 | 0.00 | 0.00 | 0.00 | 78 | 1005.4 |
| 20260505072119 | 73 | 19 | 7.0 | 23.0 | 0.00 | 0.00 | 0.00 | 78 | 1005.5 |
| 20260505071619 | 73 | 24 | 9.0 | 23.0 | 0.00 | 0.00 | 0.00 | 78 | 1005.6 |
| 20260505071120 | 74 | 29 | 6.0 | 23.0 | 0.00 | 0.00 | 0.00 | 77 | 1005.8 |
| 20260505070620 | 74 | 21 | 11.0 | 21.0 | 0.00 | 0.00 | 0.00 | 77 | 1005.8 |
| 20260505070121 | 74 | 21 | 8.0 | 19.0 | 0.00 | 0.00 | 0.00 | 77 | 1005.8 |
| 20260505065620 | 74 | 22 | 12.0 | 19.0 | 0.00 | 0.00 | 0.00 | 77 | 1006.0 |
| 20260505065119 | 74 | 24 | 10.0 | 20.0 | 0.00 | 0.00 | 0.00 | 76 | 1006.0 |
| 20260505064620 | 74 | 19 | 7.0 | 20.0 | 0.00 | 0.00 | 0.00 | 76 | 1006.1 |
| 20260505064120 | 74 | 21 | 9.0 | 23.0 | 0.00 | 0.00 | 0.00 | 76 | 1006.2 |
| 20260505063622 | 74 | 22 | 13.0 | 23.0 | 0.00 | 0.00 | 0.00 | 75 | 1006.0 |
| 20260505063120 | 74 | 20 | 15.0 | 21.0 | 0.00 | 0.00 | 0.00 | 75 | 1006.1 |
| 20260505062621 | 74 | 22 | 15.0 | 19.0 | 0.00 | 0.00 | 0.00 | 75 | 1006.2 |
| 20260505062119 | 74 | 19 | 10.0 | 22.0 | 0.00 | 0.00 | 0.00 | 74 | 1006.2 |
| 20260505061618 | 75 | 24 | 5.0 | 22.0 | 0.00 | 0.00 | 0.00 | 74 | 1006.2 |
| 20260505061118 | 75 | 22 | 11.0 | 21.0 | 0.00 | 0.00 | 0.00 | 73 | 1006.1 |
| 20260505060618 | 75 | 24 | 8.0 | 21.0 | 0.00 | 0.00 | 0.00 | 73 | 1006.2 |
| 20260505060118 | 75 | 26 | 15.0 | 21.0 | 0.00 | 0.00 | 0.00 | 73 | 1006.2 |
| 20260505055620 | 75 | 26 | 6.0 | 20.0 | 0.00 | 0.00 | 0.00 | 72 | 1006.3 |
| 20260505055119 | 76 | 30 | 14.0 | 20.0 | 0.00 | 0.00 | 0.00 | 72 | 1006.3 |
| 20260505054618 | 76 | 28 | 13.0 | 23.0 | 0.00 | 0.00 | 0.00 | 71 | 1006.2 |
| 20260505054118 | 76 | 26 | 9.0 | 23.0 | 0.00 | 0.00 | 0.00 | 71 | 1006.1 |
| 20260505053618 | 76 | 27 | 9.0 | 25.0 | 0.00 | 0.00 | 0.00 | 71 | 1006.1 |
| 20260505053118 | 76 | 32 | 11.0 | 25.0 | 0.00 | 0.00 | 0.00 | 71 | 1006.0 |
| 20260505052619 | 76 | 32 | 12.0 | 24.0 | 0.00 | 0.00 | 0.00 | 71 | 1006.2 |
| 20260505052118 | 76 | 34 | 15.0 | 19.0 | 0.00 | 0.00 | 0.00 | 71 | 1006.2 |
| 20260505051619 | 76 | 34 | 10.0 | 25.0 | 0.00 | 0.00 | 0.00 | 71 | 1006.1 |
| 20260505051117 | 76 | 31 | 10.0 | 25.0 | 0.00 | 0.00 | 0.00 | 71 | 1006.1 |
| 20260505050617 | 76 | 26 | 17.0 | 23.0 | 0.00 | 0.00 | 0.00 | 71 | 1006.2 |
| 20260505050117 | 76 | 30 | 9.0 | 20.0 | 0.00 | 0.00 | 0.00 | 71 | 1006.3 |
| 20260505041617 | 75 | 21 | 13.0 | 19.0 | 0.00 | 0.00 | 0.00 | 73 | 1006.5 |
| 20260505041116 | 75 | 28 | 8.0 | 19.0 | 0.00 | 0.00 | 0.00 | 73 | 1006.6 |
| 20260505040617 | 75 | 22 | 11.0 | 18.0 | 0.00 | 0.00 | 0.00 | 73 | 1006.5 |
| 20260505040115 | 75 | 21 | 11.0 | 19.0 | 0.00 | 0.00 | 0.00 | 73 | 1006.5 |
| 20260505035615 | 75 | 23 | 8.0 | 21.0 | 0.00 | 0.00 | 0.00 | 73 | 1006.6 |
| 20260505035115 | 75 | 22 | 10.0 | 21.0 | 0.00 | 0.00 | 0.00 | 73 | 1006.6 |
| 20260505034617 | 75 | 22 | 6.0 | 16.0 | 0.00 | 0.00 | 0.00 | 73 | 1006.6 |
| 20260505034115 | 75 | 19 | 8.0 | 16.0 | 0.00 | 0.00 | 0.00 | 72 | 1006.6 |
| 20260505033615 | 76 | 24 | 10.0 | 17.0 | 0.00 | 0.00 | 0.00 | 72 | 1006.4 |
| 20260505033115 | 76 | 22 | 10.0 | 17.0 | 0.00 | 0.00 | 0.00 | 72 | 1006.4 |
| 20260505032615 | 76 | 23 | 9.0 | 17.0 | 0.00 | 0.00 | 0.00 | 72 | 1006.5 |
| 20260505032114 | 76 | 29 | 9.0 | 17.0 | 0.00 | 0.00 | 0.00 | 72 | 1006.4 |
| 20260505031616 | 76 | 30 | 9.0 | 17.0 | 0.00 | 0.00 | 0.00 | 72 | 1006.4 |
| 20260505031114 | 76 | 25 | 11.0 | 26.0 | 0.00 | 0.00 | 0.00 | 72 | 1006.5 |
| 20260505030614 | 76 | 24 | 11.0 | 26.0 | 0.00 | 0.00 | 0.00 | 72 | 1006.5 |
| 20260505030114 | 76 | 19 | 7.0 | 17.0 | 0.00 | 0.00 | 0.00 | 72 | 1006.6 |
| 20260505025614 | 76 | 24 | 9.0 | 19.0 | 0.00 | 0.00 | 0.00 | 72 | 1006.6 |
| 20260505025116 | 76 | 25 | 5.0 | 19.0 | 0.00 | 0.00 | 0.00 | 71 | 1006.7 |
| 20260505024614 | 76 | 28 | 8.0 | 19.0 | 0.00 | 0.00 | 0.00 | 71 | 1006.6 |
| 20260505024113 | 76 | 19 | 11.0 | 19.0 | 0.00 | 0.00 | 0.00 | 71 | 1006.6 |
| 20260505023615 | 76 | 207 | 7.0 | 18.0 | 0.00 | 0.00 | 0.00 | 71 | 1006.7 |
| 20260505023114 | 76 | 151 | 6.0 | 17.0 | 0.00 | 0.00 | 0.00 | 71 | 1006.5 |
| 20260505022614 | 76 | 167 | 6.0 | 16.0 | 0.00 | 0.00 | 0.00 | 71 | 1006.6 |
| 20260505022114 | 76 | 179 | 8.0 | 15.0 | 0.00 | 0.00 | 0.00 | 71 | 1006.6 |
| 20260505021613 | 76 | 175 | 6.0 | 19.0 | 0.00 | 0.00 | 0.00 | 71 | 1006.5 |
| 20260505021114 | 76 | 152 | 7.0 | 20.0 | 0.00 | 0.00 | 0.00 | 71 | 1006.4 |
| 20260505020615 | 76 | 157 | 10.0 | 20.0 | 0.00 | 0.00 | 0.00 | 71 | 1006.5 |
| 20260505020113 | 76 | 263 | 10.0 | 18.0 | 0.00 | 0.00 | 0.00 | 70 | 1006.5 |
| 20260505015612 | 76 | 153 | 12.0 | 18.0 | 0.00 | 0.00 | 0.00 | 70 | 1006.6 |
| 20260505015113 | 76 | 182 | 7.0 | 17.0 | 0.00 | 0.00 | 0.00 | 70 | 1006.6 |
| 20260505014612 | 76 | 182 | 7.0 | 17.0 | 0.00 | 0.00 | 0.00 | 71 | 1006.5 |
| 20260505014113 | 76 | 172 | 7.0 | 18.0 | 0.00 | 0.00 | 0.00 | 71 | 1006.4 |
| 20260505013613 | 76 | 158 | 10.0 | 18.0 | 0.00 | 0.00 | 0.00 | 71 | 1006.4 |
| 20260505013112 | 76 | 159 | 8.0 | 16.0 | 0.00 | 0.00 | 0.00 | 71 | 1006.5 |
| 20260505012611 | 76 | 213 | 8.0 | 16.0 | 0.00 | 0.00 | 0.00 | 71 | 1006.5 |
| 20260505012112 | 76 | 169 | 11.0 | 16.0 | 0.00 | 0.00 | 0.00 | 70 | 1006.4 |
| 20260505011613 | 76 | 167 | 8.0 | 20.0 | 0.00 | 0.00 | 0.00 | 70 | 1006.4 |
| 20260505011114 | 77 | 169 | 7.0 | 20.0 | 0.00 | 0.00 | 0.00 | 70 | 1006.5 |
| 20260505010611 | 77 | 202 | 9.0 | 20.0 | 0.00 | 0.00 | 0.00 | 69 | 1006.5 |
| 20260505010112 | 77 | 178 | 7.0 | 15.0 | 0.00 | 0.00 | 0.00 | 69 | 1006.5 |
| 20260505005614 | 77 | 176 | 8.0 | 15.0 | 0.00 | 0.00 | 0.00 | 69 | 1006.6 |
| 20260505005114 | 77 | 161 | 5.0 | 16.0 | 0.00 | 0.00 | 0.00 | 68 | 1006.4 |
| 20260505004612 | 77 | 196 | 7.0 | 17.0 | 0.00 | 0.00 | 0.00 | 68 | 1006.6 |
| 20260505004113 | 78 | 189 | 7.0 | 20.0 | 0.00 | 0.00 | 0.00 | 68 | 1006.5 |
| 20260505003614 | 78 | 208 | 9.0 | 20.0 | 0.00 | 0.00 | 0.00 | 68 | 1006.5 |
| 20260505003112 | 78 | 219 | 8.0 | 14.0 | 0.00 | 0.00 | 0.00 | 68 | 1006.5 |
| 20260505002613 | 78 | 234 | 12.0 | 14.0 | 0.00 | 0.00 | 0.00 | 67 | 1006.6 |
| 20260505002113 | 78 | 159 | 9.0 | 21.0 | 0.00 | 0.00 | 0.00 | 67 | 1006.7 |
| 20260505001613 | 79 | 151 | 10.0 | 21.0 | 0.00 | 0.00 | 0.00 | 67 | 1006.7 |
| 20260505001111 | 79 | 165 | 11.0 | 24.0 | 0.00 | 0.00 | 0.00 | 67 | 1006.6 |
| 20260505000611 | 79 | 197 | 10.0 | 25.0 | 0.00 | 0.00 | 0.00 | 67 | 1006.5 |
| 20260505000115 | 79 | 156 | 6.0 | 25.0 | 0.00 | 0.00 | 0.00 | 66 | 1006.8 |
| 20260504235614 | 79 | 200 | 9.0 | 20.0 | 0.00 | 0.00 | 0.00 | 66 | 1006.8 |
| 20260504235116 | 79 | 199 | 10.0 | 25.0 | 0.00 | 0.00 | 0.00 | 65 | 1006.8 |
| 20260504234613 | 79 | 181 | 7.0 | 25.0 | 0.00 | 0.00 | 0.00 | 65 | 1006.8 |
| 20260504234113 | 79 | 204 | 11.0 | 24.0 | 0.00 | 0.00 | 0.00 | 65 | 1006.7 |
| 20260504233615 | 79 | 187 | 14.0 | 21.0 | 0.00 | 0.00 | 0.00 | 64 | 1007.0 |
| 20260504233114 | 79 | 198 | 8.0 | 21.0 | 0.00 | 0.00 | 0.00 | 64 | 1007.0 |
| 20260504232614 | 79 | 163 | 13.0 | 21.0 | 0.00 | 0.00 | 0.00 | 64 | 1007.1 |
| 20260504232112 | 80 | 240 | 12.0 | 22.0 | 0.00 | 0.00 | 0.00 | 64 | 1006.9 |
| 20260504231611 | 80 | 234 | 10.0 | 22.0 | 0.00 | 0.00 | 0.00 | 63 | 1006.9 |
| 20260504231114 | 80 | 218 | 9.0 | 18.0 | 0.00 | 0.00 | 0.00 | 63 | 1007.0 |
| 20260504230612 | 80 | 217 | 11.0 | 18.0 | 0.00 | 0.00 | 0.00 | 63 | 1007.0 |
| 20260504230112 | 80 | 156 | 8.0 | 18.0 | 0.00 | 0.00 | 0.00 | 62 | 1007.0 |
| 20260504225612 | 80 | 176 | 16.0 | 26.0 | 0.00 | 0.00 | 0.00 | 61 | 1007.1 |
| 20260504225112 | 80 | 208 | 10.0 | 26.0 | 0.00 | 0.00 | 0.00 | 62 | 1007.4 |
| 20260504224614 | 81 | 200 | 10.0 | 25.0 | 0.00 | 0.00 | 0.00 | 62 | 1007.4 |
| 20260504224112 | 81 | 197 | 11.0 | 26.0 | 0.00 | 0.00 | 0.00 | 61 | 1007.3 |
| 20260504223612 | 81 | 226 | 14.0 | 26.0 | 0.00 | 0.00 | 0.00 | 61 | 1007.4 |
| 20260504223110 | 81 | 164 | 11.0 | 23.0 | 0.00 | 0.00 | 0.00 | 61 | 1007.3 |
| 20260504222612 | 82 | 211 | 10.0 | 24.0 | 0.00 | 0.00 | 0.00 | 61 | 1007.4 |
| 20260504222111 | 82 | 162 | 6.0 | 25.0 | 0.00 | 0.00 | 0.00 | 61 | 1007.3 |
| 20260504221613 | 81 | 237 | 12.0 | 25.0 | 0.00 | 0.00 | 0.00 | 61 | 1007.2 |
| 20260504221113 | 81 | 198 | 18.0 | 24.0 | 0.00 | 0.00 | 0.00 | 61 | 1007.3 |
| 20260504220616 | 82 | 177 | 13.0 | 24.0 | 0.00 | 0.00 | 0.00 | 61 | 1007.4 |
| 20260504220113 | 82 | 156 | 9.0 | 22.0 | 0.00 | 0.00 | 0.00 | 61 | 1007.6 |
| 20260504215615 | 82 | 208 | 7.0 | 22.0 | 0.00 | 0.00 | 0.00 | 61 | 1007.4 |
| 20260504215112 | 82 | 165 | 22.0 | 20.0 | 0.00 | 0.00 | 0.00 | 61 | 1007.7 |